Terug naar catalogus

HULIANWANG DIGUI-12

ActiefCommunicatieLEO
NORAD 62972·PAYLOAD·🇨🇳 China

Gelanceerd Feb 11, 2025 vanaf Wenchang Space Launch Site

Loading…

Volgende Passages (komende 24 uur)

TLE

VersSource: Space-Track

Epoch: Sep 14, 2026, 13:22 UTC

1 62972U 25030B   26257.55704433 -.00000095  00000-0  62103-4 0  9990
2 62972  50.0015 275.4179 0000476  40.7058 319.3850 13.29324745 77749

Volg HULIANWANG DIGUI-12 in realtime met AllMySat

Download on the App Store